[[{"header":{"parameterUnit":"m.s-1","parameterCategory":1,"la1":30.2991,"la2":30.254,"lo1":-89.0895,"lo2":-89.0444,"dy":0.0017,"dx":0.0017,"nx":28,"ny":28,"refTime":"2025-04-06T09:00:00:Z","depth":0,"parameterNumber":2,"parameterNumberName":"U-component_of_WINDS"},"data":[0,0,0,0,0,0,0,0,0,0,0,0,0,0,0,0,0,0,0,0,0,0,0,0,0,0,0,0,0,0,0,0,0,0,0,0,0,0,0,0,0,0,0,0,0,0,0,0,0,0,0,0,0,0,0,0,0,0,1.2553,1.2552,0,1.2511,1.251,1.251,1.2447,1.2446,1.2445,1.2444,1.2402,1.2402,1.2402,0,0,0,0,0,0,0,0,0,0,0,0,0,1.258,1.258,1.2553,1.2552,1.2552,1.2511,1.251,1.251,1.2447,1.2446,1.2445,1.2443,1.2402,1.2402,1.2402,0,0,0,0,0,0,0,0,0,0,0,0,0,1.2556,1.258,1.2553,1.2516,1.2512,1.2511,1.251,1.2509,1.2448,1.2446,1.2444,1.2443,1.2402,1.2402,1.2402,1.2434,0,0,1.2401,1.2401,0,0,0,0,0,0,0,0,1.2557,1.2555,1.2522,1.2518,1.2514,1.2482,1.2504,1.2484,1.2448,1.2472,1.2444,1.2442,1.243,1.2427,1.2423,1.2432,1.243,1.2401,1.2401,1.2401,1.2401,0,0,0,0,0,0,0,1.2559,1.2557,1.2536,1.2521,1.2517,1.2501,1.2496,1.25,1.2461,1.247,1.2465,1.2461,1.2428,1.2424,1.2422,1.2429,1.2401,1.2401,1.2401,1.2401,1.2461,1.2462,0,0,0,0,0,0,1.2566,1.2558,1.2538,1.2535,1.2532,1.2502,1.2496,1.2494,1.2461,1.2454,1.2462,1.2458,1.2425,1.2422,1.242,1.2454,1.2401,1.2401,1.2401,1.2459,1.2461,1.2463,0,0,0,0,0,0,1.2567,1.2565,1.2539,1.2545,1.2541,1.2503,1.2502,1.2494,1.249,1.2455,1.2448,1.2465,1.2423,1.242,1.243,1.2452,1.2401,1.2401,1.2457,1.246,1.2462,1.2524,0,0,0,0,0,0,1.2568,1.2566,1.2577,1.2546,1.2541,1.255,1.2503,1.2495,1.249,1.2484,1.2456,1.245,1.2422,1.2431,1.243,1.2451,1.2401,1.2455,1.2458,1.2461,1.252,1.2528,1.2536,0,0,0,0,0,1.2569,1.2597,1.2578,1.2576,1.2555,1.2552,1.2549,1.2516,1.2492,1.2503,1.2481,1.2451,1.245,1.2433,1.2431,1.2452,1.2454,1.2457,1.2461,1.2516,1.2527,1.2535,0,0,0,0,0,0,1.2633,1.2592,1.2571,1.259,1.2575,1.2541,1.2555,1.2528,1.2519,1.2514,1.2474,1.2468,1.2483,1.2469,1.245,1.2481,1.2447,1.2451,1.249,1.2499,1.2507,1.251,1.24,0,0,0,0,0,1.2649,1.2649,1.2614,1.2634,1.2627,1.2593,1.259,1.2566,1.2549,1.2542,1.252,1.2505,1.2501,1.2499,1.2494,1.2518,1.251,1.2531,1.2539,1.2546,1.2549,1.2559,1.2568,1.2475,1.2475,1.2475,0,0,1.2682,1.266,1.2663,1.2646,1.2632,1.2633,1.2588,1.2592,1.2592,1.2543,1.255,1.2534,1.2514,1.2531,1.2537,1.2519,1.2573,1.2551,1.2556,1.2556,1.2564,1.2573,1.2581,1.2478,1.2478,1.2477,0,0,1.2743,1.2727,1.2741,1.2727,1.2705,1.2682,1.2685,1.2656,1.2643,1.265,1.2612,1.2613,1.2608,1.2595,1.2587,1.2643,1.2614,1.2643,1.2683,1.2694,1.2701,1.2707,1.2726,1.2733,1.2646,1.2646,1.2646,0,1.2787,1.2787,1.2752,1.2757,1.2751,1.2706,1.2719,1.2708,1.2686,1.2682,1.2662,1.2654,1.2638,1.265,1.2663,1.266,1.2662,1.2645,1.2703,1.2709,1.2714,1.2731,1.2738,1.265,1.2649,1.2649,1.2649,0,1.2842,1.2843,1.2857,1.2836,1.2831,1.2841,1.2806,1.2806,1.2782,1.2761,1.2768,1.2747,1.2736,1.2737,1.2714,1.2746,1.2735,1.271,1.2675,1.2727,1.2742,1.2749,1.2655,1.2653,1.2652,1.2652,0,0,1.2941,1.29,1.2906,1.2895,1.2868,1.2868,1.2875,1.2864,1.2864,1.285,1.2855,1.2851,1.2827,1.2819,1.2794,1.2804,1.2847,1.2777,1.2775,1.2789,1.288,1.2898,1.2906,1.2829,1.283,1.2831,1.2881,0,1.2996,1.3006,1.2974,1.2992,1.2992,1.2949,1.2955,1.2939,1.292,1.2917,1.2895,1.2892,1.2861,1.2856,1.2863,1.2841,1.2865,1.2837,1.2832,1.2832,1.2837,1.2915,1.2934,1.2983,1.2887,1.2888,1.2889,0,1.306,1.3049,1.3068,1.3038,1.3037,1.3044,1.303,1.3028,1.3009,1.2994,1.2984,1.2956,1.2961,1.2928,1.2934,1.2916,1.2912,1.2901,1.2902,1.2899,1.2863,1.2913,1.2997,1.3004,1.2898,1.2897,1.2897,0,1.3129,1.3119,1.3128,1.3121,1.3087,1.3093,1.3079,1.3058,1.3053,1.3042,1.3038,1.3028,1.3022,1.3014,1.2983,1.2962,1.2992,1.2957,1.2979,1.298,1.2987,1.2986,1.307,1.2987,1.2987,1.2986,1.2986,0,1.3193,1.3205,1.3158,1.3164,1.3177,1.314,1.3153,1.3135,1.3117,1.3118,1.3081,1.3083,1.3042,1.304,1.3016,1.3024,1.3022,1.3009,1.3002,1.3012,1.3013,1.3008,1.3003,1.2988,1.2988,1.2988,1.2987,0,1.3271,1.324,1.3247,1.3215,1.3207,1.3218,1.319,1.3193,1.3171,1.3173,1.3172,1.3137,1.3132,1.31,1.3089,1.3072,1.3088,1.3076,1.3095,1.309,1.3113,1.3111,1.3196,1.3204,1.3117,1.3118,1.3118,0,1.3313,1.3321,1.3289,1.3287,1.3275,1.3273,1.3267,1.3231,1.3227,1.3205,1.3212,1.3203,1.3195,1.3189,1.3162,1.3153,1.3139,1.3169,1.3137,1.3146,1.3137,1.3137,1.3137,1.3176,1.3177,1.3178,1.3178,0,1.3389,1.3374,1.3367,1.3355,1.335,1.3339,1.3325,1.3326,1.3286,1.3283,1.3277,1.3271,1.3258,1.325,1.3236,1.3221,1.3193,1.3189,1.3193,1.3202,1.3212,1.3206,1.3112,1.3187,1.3186,1.3185,1.3185,1.3185,1.3449,1.3454,1.3433,1.3426,1.3413,1.3401,1.3403,1.3381,1.3375,1.3361,1.3341,1.3338,1.3318,1.3295,1.3284,1.328,1.3264,1.3271,1.3272,1.3274,1.3278,1.3214,1.3278,1.3277,1.3277,1.3277,1.3277,0,1.3523,1.3507,1.3502,1.3484,1.3479,1.3453,1.3437,1.3434,1.3432,1.3415,1.3408,1.34,1.3393,1.3366,1.3355,1.3357,1.3344,1.3356,1.3354,1.3351,1.3294,1.3291,1.3366,1.3366,1.3366,1.3366,1.3366,1.3366,1.356,1.3567,1.3549,1.3549,1.3532,1.3529,1.3522,1.3511,1.3497,1.3491,1.3484,1.3466,1.3446,1.3433,1.3424,1.3417,1.3414,1.3429,1.3417,1.3364,1.3356,1.3347,1.3344,1.3429,1.343,1.3474,1.3475,1.3475]},{"header":{"parameterUnit":"m.s-1","parameterCategory":1,"la1":30.2991,"la2":30.254,"lo1":-89.0895,"lo2":-89.0444,"dy":0.0017,"dx":0.0017,"nx":28,"ny":28,"refTime":"2025-04-06T09:00:00:Z","depth":0,"parameterNumber":3,"parameterNumberName":"V-component_of_WINDS"},"data":[0,0,0,0,0,0,0,0,0,0,0,0,0,0,0,0,0,0,0,0,0,0,0,0,0,0,0,0,0,0,0,0,0,0,0,0,0,0,0,0,0,0,0,0,0,0,0,0,0,0,0,0,0,0,0,0,0,0,7.794,7.7941,0,7.8093,7.8094,7.8096,7.8099,7.8097,7.8096,7.8094,7.825,7.8255,7.8261,0,0,0,0,0,0,0,0,0,0,0,0,0,7.7652,7.7657,7.794,7.7942,7.7943,7.8092,7.8094,7.8096,7.81,7.8097,7.8095,7.8093,7.8248,7.8255,7.8262,0,0,0,0,0,0,0,0,0,0,0,0,0,7.7788,7.7659,7.7939,7.7963,7.7967,7.8092,7.8094,7.8097,7.81,7.8097,7.8095,7.8092,7.8245,7.8254,7.8263,7.8374,0,0,7.829,7.8294,0,0,0,0,0,0,0,0,7.778,7.7799,7.7958,7.7962,7.7966,7.8074,7.805,7.819,7.8101,7.8049,7.8094,7.809,7.8193,7.8206,7.8241,7.8381,7.8388,7.8291,7.8296,7.83,7.8302,0,0,0,0,0,0,0,7.7771,7.7792,7.8,7.796,7.7965,7.7967,7.7983,7.8077,7.8135,7.8054,7.8054,7.8072,7.8195,7.8233,7.8245,7.839,7.829,7.8298,7.8304,7.8307,7.8633,7.8637,0,0,0,0,0,0,7.7757,7.7784,7.7995,7.8005,7.7864,7.7974,7.7992,7.8042,7.8134,7.8146,7.8075,7.8072,7.8219,7.8235,7.825,7.8389,7.83,7.8308,7.8313,7.863,7.8634,7.8638,0,0,0,0,0,0,7.775,7.7775,7.7989,7.7895,7.7922,7.7982,7.8038,7.8047,7.8084,7.815,7.8161,7.8102,7.8217,7.8238,7.8344,7.8394,7.8312,7.832,7.8626,7.8631,7.8636,7.8666,0,0,0,0,0,0,7.7742,7.7773,7.7816,7.7896,7.7927,7.808,7.8041,7.8052,7.81,7.8098,7.8179,7.819,7.8217,7.8331,7.8353,7.8405,7.8327,7.8622,7.8628,7.8634,7.8661,7.8671,7.868,0,0,0,0,0,7.7732,7.7817,7.7818,7.7843,7.7981,7.8083,7.8101,7.813,7.8104,7.8147,7.819,7.8187,7.8385,7.8342,7.8367,7.8422,7.8619,7.8627,7.8634,7.8656,7.8669,7.868,0,0,0,0,0,0,7.774,7.7828,7.7829,7.7943,7.8006,7.8083,7.8139,7.8143,7.8213,7.8209,7.8242,7.8261,7.8367,7.8405,7.8355,7.8537,7.8499,7.8512,7.8508,7.8521,7.853,7.8519,7.8334,0,0,0,0,0,7.7755,7.783,7.7903,7.7996,7.8027,7.8078,7.8123,7.8141,7.8207,7.8233,7.8283,7.8348,7.8425,7.8475,7.8549,7.8667,7.8686,7.8717,7.8727,7.8735,7.8746,7.8813,7.8829,7.8662,7.8662,7.8662,0,0,7.7787,7.7844,7.7889,7.7999,7.805,7.8127,7.81,7.8182,7.8241,7.8245,7.8349,7.8389,7.8463,7.8576,7.8628,7.8611,7.8796,7.8745,7.875,7.8757,7.8823,7.8839,7.8853,7.8668,7.8667,7.8666,0,0,7.7885,7.7935,7.8019,7.8071,7.8149,7.8182,7.8203,7.8281,7.8307,7.8413,7.8419,7.8489,7.862,7.8674,7.8718,7.884,7.884,7.8863,7.8915,7.898,7.8993,7.9005,7.9051,7.9066,7.8874,7.8874,7.8874,0,7.7914,7.8031,7.8062,7.8146,7.8195,7.8204,7.8291,7.834,7.8437,7.8471,7.8451,7.8619,7.8669,7.8796,7.8826,7.8861,7.8887,7.8854,7.8989,7.9001,7.9013,7.9056,7.9073,7.8876,7.8876,7.8876,7.8875,0,7.8064,7.8146,7.8205,7.83,7.8356,7.844,7.8485,7.8538,7.8552,7.8588,7.8697,7.8758,7.8846,7.8878,7.8891,7.9008,7.8995,7.8982,7.8945,7.9031,7.9072,7.9089,7.8879,7.8879,7.8878,7.8877,0,0,7.8169,7.8283,7.8304,7.8349,7.8437,7.8501,7.8587,7.8674,7.872,7.8788,7.8862,7.8975,7.8964,7.9014,7.9034,7.9092,7.9187,7.9072,7.9074,7.9092,7.9322,7.9332,7.9351,7.9188,7.9192,7.9194,7.9316,0,7.8277,7.843,7.8463,7.8595,7.8672,7.8684,7.876,7.8822,7.8859,7.893,7.8971,7.9051,7.9029,7.906,7.9118,7.9163,7.9234,7.9155,7.9259,7.9262,7.924,7.9372,7.9383,7.9495,7.9333,7.9335,7.9337,0,7.8423,7.8496,7.8637,7.8717,7.8751,7.8818,7.8902,7.897,7.9042,7.9065,7.9123,7.9138,7.923,7.9189,7.9317,7.9262,7.9307,7.9336,7.9341,7.9352,7.9305,7.9388,7.9531,7.9548,7.9363,7.9361,7.9359,0,7.8487,7.8621,7.8723,7.8761,7.8857,7.8904,7.8946,7.9016,7.9067,7.9141,7.9176,7.9259,7.9305,7.9369,7.9407,7.9373,7.9533,7.9494,7.9556,7.9555,7.9589,7.9586,7.9742,7.9616,7.9616,7.9616,7.9615,0,7.8604,7.869,7.8754,7.8816,7.8914,7.8951,7.9047,7.9089,7.9151,7.9224,7.9239,7.9307,7.9352,7.9427,7.9457,7.956,7.958,7.9602,7.9609,7.9601,7.9598,7.9631,7.9624,7.962,7.9619,7.9618,7.9618,0,7.8692,7.8737,7.885,7.8933,7.8956,7.9024,7.9096,7.9158,7.9196,7.9288,7.9311,7.9372,7.9461,7.9505,7.9615,7.9636,7.9752,7.9754,7.9728,7.9731,7.979,7.9785,7.9973,8.0001,7.9856,7.9857,7.9858,0,7.8764,7.8831,7.8922,7.8972,7.9015,7.9095,7.9149,7.9188,7.9243,7.9333,7.9385,7.9475,7.9549,7.9691,7.9745,7.9831,7.9835,7.9895,7.9848,7.9839,7.9838,7.9834,7.9842,7.9904,7.9905,7.9906,7.9907,0,7.8887,7.8908,7.8984,7.907,7.9133,7.9202,7.927,7.931,7.9361,7.9423,7.9515,7.9572,7.9686,7.9776,7.9866,7.9911,7.9919,7.9922,7.9941,7.9934,7.9916,7.9928,7.9752,7.9917,7.9916,7.9915,7.9915,7.9914,7.897,7.9032,7.9106,7.9191,7.9247,7.9311,7.9375,7.9422,7.9499,7.9596,7.9615,7.9713,7.9787,7.9909,7.9956,8.0034,8.0021,8.0048,8.0055,8.0062,8.0066,7.9904,8.0051,8.005,8.005,8.005,8.005,0,7.9096,7.9145,7.9224,7.9319,7.9387,7.9389,7.9466,7.9523,7.9609,7.9677,7.975,7.9858,7.9946,8.0008,8.0098,8.0149,8.0155,8.0171,8.0168,8.0179,8.0071,8.0046,8.0165,8.0165,8.0165,8.0165,8.0165,8.0165,7.9169,7.9274,7.9303,7.9436,7.9485,7.9581,7.9625,7.9685,7.974,7.9859,7.9933,7.9973,8.004,8.0136,8.0218,8.0234,8.0267,8.0284,8.03,8.0198,8.0186,8.0175,8.0152,8.0291,8.0291,8.0402,8.0403,8.0404]}]]